Regional Weather Roundup
Issued by NWS Boston, MA

Current Version | Previous Version | Text Only | Print | Product List | Glossary Off
Versions: 1 2 3 4 5 6 7 8 9 10 11 12 13 14 15 16 17 18 19 20 21 22 23 24 25 26 27 28 29 30 31 32 33 34 35 36 37 38 39 40 41 42 43 44 45 46 47 48 49 50

000
ASUS41 KBOX 041510
RWRBOX

REGIONAL WEATHER ROUNDUP
NATIONAL WEATHER SERVICE TAUNTON MA
1000 AM EST WED MAR 04 2015

NOTE:  "FAIR" INDICATES FEW OR NO CLOUDS BELOW 12,000 FEET WITH NO
SIGNIFICANT WEATHER AND/OR OBSTRUCTIONS TO VISIBILITY.  THE FOLLOWING
OBSERVATION LOCATIONS DO NOT REPORT PRESENT WEATHER...PROVINCETOWN...
SMITHFIELD...BLOCK ISLAND...KEENE...AND OXFORD.

MAZALL-041600-
EASTERN MASSACHUSETTS

CITY           SKY/WX    TMP DP  RH WIND       PRES   REMARKS
BOSTON         CLOUDY    38  33  82 SW10      29.75  WCI  31
BEVERLY        CLOUDY    39  31  72 SW10      29.73R
LAWRENCE       CLOUDY    39  32  76 SW9       29.74R
BEDFORD        CLOUDY    40  31  70 W12       29.74R
BLUE HILL        N/A     37  34  89 SW10      29.73R WCI  30
NORWOOD        CLOUDY    39  34  82 SW8       29.76R
MARSHFIELD     CLOUDY    39  36  87 SW6       29.79R
PLYMOUTH       CLOUDY    37  36  96 SW8       29.78R WCI  31
TAUNTON        CLOUDY    39  36  89 SW8       29.77S
NEW BEDFORD    CLOUDY    38  36  92 SW6       29.80R
$$

MAZALL-041600-
CAPE COD AND THE ISLANDS

CITY           SKY/WX    TMP DP  RH WIND       PRES   REMARKS
FALMOUTH       LGT RAIN  36  34  93 SW6       29.80R WCI  31
HYANNIS        LGT RAIN  34  33  96 SW10      29.79S FOG     WCI  26
CHATHAM        MIX PCPN  33  33 100 SW10      29.81S FOG     WCI  25
PROVINCETOWN   CLOUDY    36  34  93 SW13      29.78R WCI  27
NANTUCKET      LGT RAIN  36  35  96 W15       29.82R FOG     WCI  27
MARTHAS VNYRD  LGT RAIN  36  32  85 W7        29.81R FOG     WCI  30
$$

MAZALL-041600-
CENTRAL AND WESTERN MASSACHUSETTS

CITY           SKY/WX    TMP DP  RH WIND       PRES   REMARKS
WORCESTER      CLOUDY    36  30  79 W20G26    29.73R WCI  25
FITCHBURG      CLOUDY    41  30  65 W6G18     29.74R
ORANGE         CLOUDY    39  29  67 W6        29.76R
SPRINGFIELD    CLOUDY    36  33  88 W6        29.79R WCI  31
WESTFIELD      CLOUDY    40  31  70 W6        29.79R
NORTH ADAMS    CLOUDY    35  27  72 MISG      29.80R
PITTSFIELD     CLOUDY    32  28  85 NW8       29.75R WCI  25
$$

RIZALL-041600-
RHODE ISLAND

CITY           SKY/WX    TMP DP  RH WIND       PRES   REMARKS
PROVIDENCE     CLOUDY    38  34  85 SW5       29.80R
NEWPORT        CLOUDY    37  35  92 SW5       29.80R
BLOCK ISLAND   PTSUNNY   36  34  93 W13       29.83R WCI  27
SMITHFIELD     CLOUDY    39  32  75 W6        29.77R
WESTERLY       PTSUNNY   36  34  92 SW9       29.83R FOG     WCI  29
$$

CTZALL-041600-
CONNECTICUT

CITY           SKY/WX    TMP DP  RH WIND       PRES   REMARKS
BRADLEY INTL   CLOUDY    39  33  79 SW8       29.80R
HARTFORD       CLOUDY    39  34  82 VRB5      29.82S
BRIDGEPORT     CLOUDY    34  32  92 SW9       29.84R FOG     WCI  27
DANBURY        CLOUDY    37  33  85 SW9       29.84R WCI  30
GROTON         CLOUDY    34  34 100 SW8       29.83R FOG     WCI  27
NEW HAVEN      MIX PCPN  35  33  92 SW6       29.83R FOG     WCI  30
CHESTER        FAIR      37  36  93 SW5       29.81R FOG
MERIDEN        CLOUDY    37  35  92 CALM      29.82S FOG
WILLIMANTIC    CLOUDY    39  35  86 W5        29.80R
OXFORD         CLOUDY    37  30  75 W5        29.81R FOG
$$

MEZ002-015-021-024-NHZ003-005-008-011-012-014-VTZ005-008-041600-
NORTHERN NEW ENGLAND

CITY           SKY/WX    TMP DP  RH WIND       PRES   REMARKS
PORTLAND ME    CLOUDY    37  30  75 SW12      29.67F WCI  29
BANGOR ME      CLOUDY    34  26  72 SW10      29.62S WCI  26
CONCORD NH     CLOUDY    37  29  72 NW6       29.70R
MANCHESTER NH  CLOUDY    40  31  70 VRB5      29.70R
NASHUA NH      CLOUDY    42  30  62 CALM      29.73R
PORTSMOUTH NH  CLOUDY    38  33  82 SW3       29.70R
JAFFREY NH     CLOUDY    37  28  70 W8G18     29.69S WCI  31
KEENE NH       CLOUDY    39  30  70 W6        29.75R
BURLINGTON VT  PTSUNNY   36  22  56 NW13      29.74R WCI  27
MT. WASHINGTON BLWGSNOW  12  12 100 NW56G67     N/A  VSB 0   WCI -15
$$

NYZ052-076-041600-
EASTERN NEW YORK

CITY           SKY/WX    TMP DP  RH WIND       PRES   REMARKS
ALBANY         CLOUDY    37  27  67 NW6       29.83R
NEW YORK CITY  LGT RAIN  40  35  83 S10       29.86R
$$

ANZALL-041600-
MARINE OBSERVATIONS

STATION/POSITION TIME  TEMP    WIND        PRES    VSBY  WAVE
                       AIR SEA DIR/SP/G                  HT/PER
                 (UTC) (F)     (DEG/KT/KT) (MB)    (MI)  (FT/S)
BOSTON BUOY      1450   37 36  220/ 10/ 12 1007.6R         1/ 7
BUZZARDS BAY     1500          240/ 18/ 19 1009.9R
NANTUCKET SOUND  1450   33 30  230/ 12/ 14 1009.6R         1/ 3
MASS BAY-STELLWA 1404   36 36  220/ 10/ 12   N/A    1 7/8  3/ 6
ISLE OF SHOALS   1500   37     220/ 10/ 11 1005.7R
S OF BLOCK IS    1408      36                N/A           8/ 9
$$

......................KEY.........................
  SKY/WX - SKY CONDITION/PRESENT WEATHER
  TMP    - TEMPERATURE IN FAHRENHEIT
  DWPT   - DEWPOINT IN FAHRENHEIT
  RH     - RELATIVE HUMIDITY IN PERCENT
  WIND   - DIRECTION AND SPEED IN MPH
  PRES   - MEAN SEA LEVEL PRESSURE IN INCHES OF HG
  WCI    - WIND CHILL INDEX
  VSB    - VISIBILITY IN MILES
  HX     - HEAT INDEX
  TC     - TEMPERATURE IN CELSIUS
  VRB    - VARIABLE WIND DIRECTION
  N/A    - NOT AVAILABLE


USA.gov is the U.S. government's official web portal to all federal, state and local government web resources and services.